AFL8472 UHHH-ZKPY

Flight info

Callsign AFL8472
Flight time N/A
Altitude 36000
Route ARDEL2P ARDEL B355 KICHA R452 SOCHA SOC21A
Aircraft A20N/M-SDE3FGHIRWY/LB1

Departure

Time 2026-04-12 16:09
Airport Khabarovsk Novy Airport (UHHH)

Arrival

Time N/A
Airport Pyongyang Sunan International Airport (ZKPY)
Time Latitude Longitude Altitude Speed Heading
2026-04-12 15:56 48.52487 135.17146 234 ft 0 kts 311°
2026-04-12 16:01 48.52483 135.17152 234 ft 1 kts 311°
2026-04-12 16:01 48.52478 135.17161 236 ft 1 kts 311°
2026-04-12 16:01 48.52473 135.17169 237 ft 1 kts 311°
2026-04-12 16:01 48.52455 135.17195 237 ft 5 kts 327°
2026-04-12 16:02 48.52422 135.17217 234 ft 5 kts 351°
2026-04-12 16:02 48.52389 135.17201 238 ft 5 kts 56°
2026-04-12 16:02 48.52387 135.17198 237 ft 0 kts 58°
2026-04-12 16:03 48.52396 135.17208 238 ft 4 kts 42°
2026-04-12 16:03 48.52420 135.17246 236 ft 3 kts 25°
2026-04-12 16:03 48.52425 135.17238 236 ft 1 kts 310°
2026-04-12 16:04 48.52424 135.17235 237 ft 1 kts 292°
2026-04-12 16:04 48.52389 135.17199 237 ft 11 kts 214°
2026-04-12 16:04 48.52320 135.17093 235 ft 16 kts 238°
2026-04-12 16:04 48.52255 135.16940 237 ft 19 kts 224°
2026-04-12 16:05 48.52155 135.16794 236 ft 21 kts 221°
2026-04-12 16:05 48.52025 135.16706 236 ft 21 kts 198°
2026-04-12 16:05 48.51876 135.16636 234 ft 21 kts 191°
2026-04-12 16:05 48.51803 135.16724 234 ft 13 kts 126°
2026-04-12 16:06 48.51733 135.16837 234 ft 16 kts 134°
2026-04-12 16:06 48.51653 135.16976 235 ft 19 kts 128°
2026-04-12 16:06 48.51559 135.17130 236 ft 21 kts 134°
2026-04-12 16:06 48.51503 135.17311 238 ft 18 kts 63°
2026-04-12 16:07 48.51523 135.17345 241 ft 0 kts 36°
2026-04-12 16:08 48.51524 135.17346 236 ft 4 kts 36°
2026-04-12 16:08 48.51745 135.17652 236 ft 81 kts 43°
2026-04-12 16:09 48.52322 135.18446 238 ft 140 kts 42°
2026-04-12 16:09 48.53162 135.19569 355 ft 176 kts 42°
2026-04-12 16:09 48.54064 135.20858 747 ft 185 kts 44°
2026-04-12 16:09 48.55000 135.22274 1224 ft 196 kts 47°
2026-04-12 16:10 48.55872 135.23977 1726 ft 212 kts 65°
2026-04-12 16:10 48.56237 135.26181 2456 ft 222 kts 88°
2026-04-12 16:10 48.55994 135.28503 3275 ft 234 kts 113°
2026-04-12 16:10 48.54874 135.30304 4140 ft 247 kts 157°
2026-04-12 16:11 48.53163 135.30429 4922 ft 257 kts 206°
2026-04-12 16:11 48.51412 135.29282 5139 ft 294 kts 208°
2026-04-12 16:11 48.49528 135.27746 5565 ft 319 kts 209°
2026-04-12 16:11 48.47495 135.26147 6155 ft 338 kts 207°
2026-04-12 16:12 48.45334 135.24601 6660 ft 357 kts 205°
2026-04-12 16:12 48.42974 135.23190 7233 ft 367 kts 200°
2026-04-12 16:12 48.40513 135.22035 7544 ft 374 kts 197°
2026-04-12 16:12 48.37973 135.21020 7598 ft 383 kts 196°
2026-04-12 16:13 48.35355 135.19974 7540 ft 390 kts 196°
2026-04-12 16:13 48.32860 135.19000 7440 ft 351 kts 195°
2026-04-12 16:13 48.30625 135.18171 7284 ft 319 kts 195°
2026-04-12 16:13 48.28554 135.17463 7128 ft 291 kts 193°
2026-04-12 16:14 48.26609 135.16996 7138 ft 278 kts 185°
2026-04-12 16:14 48.24673 135.16887 7447 ft 280 kts 184°
2026-04-12 16:14 48.22724 135.16722 7776 ft 279 kts 186°
2026-04-12 16:14 48.20797 135.16395 7851 ft 278 kts 189°
2026-04-12 16:15 48.18877 135.15940 7853 ft 279 kts 191°
2026-04-12 16:15 48.16969 135.15420 7848 ft 278 kts 192°
2026-04-12 16:15 48.15085 135.14878 7848 ft 278 kts 192°
2026-04-12 16:15 48.13184 135.14323 7846 ft 278 kts 192°
2026-04-12 16:16 48.11275 135.13767 7843 ft 279 kts 192°
2026-04-12 16:16 48.09368 135.13215 7844 ft 279 kts 192°
2026-04-12 16:16 48.07482 135.12672 7848 ft 279 kts 192°
2026-04-12 16:16 48.05577 135.12125 7844 ft 278 kts 192°
2026-04-12 16:17 48.03665 135.11577 7845 ft 279 kts 192°
2026-04-12 16:17 48.03654 135.11574 7846 ft 279 kts 192°
2026-04-12 16:17 48.01713 135.11012 7842 ft 300 kts 192°
2026-04-12 16:17 47.99708 135.10438 7842 ft 284 kts 192°
2026-04-12 16:18 47.97826 135.09903 7839 ft 279 kts 192°
2026-04-12 16:18 47.95902 135.09354 8107 ft 283 kts 192°
2026-04-12 16:18 47.93954 135.08799 9036 ft 284 kts 192°
2026-04-12 16:18 47.92012 135.08245 10141 ft 286 kts 192°
2026-04-12 16:19 47.89981 135.07664 10671 ft 308 kts 192°
2026-04-12 16:19 47.87794 135.07036 11082 ft 331 kts 192°
2026-04-12 16:19 47.85495 135.06380 11840 ft 338 kts 192°
2026-04-12 16:19 47.83168 135.05721 12798 ft 342 kts 192°
2026-04-12 16:20 47.82834 135.05626 12930 ft 343 kts 192°
2026-04-12 16:20 47.82234 135.05459 13168 ft 345 kts 191°
2026-04-12 16:20 47.79920 135.05100 14005 ft 350 kts 184°
2026-04-12 16:20 47.78296 135.05008 14510 ft 354 kts 184°
2026-04-12 16:21 47.75823 135.04864 15272 ft 359 kts 184°
2026-04-12 16:21 47.73302 135.04711 16038 ft 364 kts 184°
2026-04-12 16:21 47.70781 135.04553 16797 ft 369 kts 185°
2026-04-12 16:21 47.67316 135.04333 17636 ft 375 kts 185°
2026-04-12 16:22 47.65579 135.04223 17781 ft 377 kts 185°
2026-04-12 16:22 47.62944 135.04055 17835 ft 377 kts 185°
2026-04-12 16:22 47.60353 135.03890 17837 ft 377 kts 185°
2026-04-12 16:22 47.57737 135.03723 17839 ft 377 kts 185°
2026-04-12 16:23 47.55116 135.03556 17839 ft 377 kts 185°
2026-04-12 16:23 47.52484 135.03388 17838 ft 377 kts 185°
2026-04-12 16:23 47.49860 135.03221 17836 ft 377 kts 185°
2026-04-12 16:23 47.47235 135.03054 17842 ft 377 kts 185°
2026-04-12 16:24 47.44611 135.02887 17860 ft 379 kts 185°
2026-04-12 16:24 47.41950 135.02718 18393 ft 383 kts 185°
2026-04-12 16:24 47.39320 135.02552 19181 ft 383 kts 185°
2026-04-12 16:24 47.36642 135.02383 19863 ft 386 kts 185°
2026-04-12 16:25 47.33938 135.02211 20531 ft 390 kts 185°
2026-04-12 16:25 47.31210 135.02039 21209 ft 394 kts 185°
2026-04-12 16:25 47.28453 135.01865 21892 ft 397 kts 185°
2026-04-12 16:25 47.25664 135.01689 22565 ft 401 kts 185°
2026-04-12 16:26 47.22898 135.01515 23218 ft 405 kts 185°
2026-04-12 16:26 47.20071 135.01337 23791 ft 408 kts 186°
2026-04-12 16:26 47.17214 135.01158 24320 ft 412 kts 186°
2026-04-12 16:26 47.14333 135.00977 24841 ft 415 kts 186°
2026-04-12 16:27 47.11430 135.00795 25350 ft 419 kts 186°
2026-04-12 16:27 47.08499 135.00612 25858 ft 422 kts 186°
2026-04-12 16:27 47.05582 135.00429 26327 ft 426 kts 186°
2026-04-12 16:27 47.02611 135.00243 26815 ft 429 kts 186°
2026-04-12 16:28 46.96711 134.99876 27698 ft 436 kts 186°
2026-04-12 16:28 46.84399 134.99113 29363 ft 449 kts 187°
2026-04-12 16:28 46.71842 134.97672 30797 ft 457 kts 191°
2026-04-12 16:28 46.59211 134.95900 32843 ft 449 kts 192°
2026-04-12 16:29 46.47070 134.94268 32727 ft 422 kts 193°
2026-04-12 16:29 46.35627 134.92698 31455 ft 422 kts 193°
2026-04-12 16:29 46.23451 134.91048 32097 ft 449 kts 193°
2026-04-12 16:29 46.11074 134.89412 33860 ft 445 kts 194°
2026-04-12 16:30 45.98769 134.87774 35115 ft 444 kts 194°
2026-04-12 16:30 45.86999 134.83996 35896 ft 421 kts 212°
2026-04-12 16:30 45.76901 134.75940 35900 ft 414 kts 217°
2026-04-12 16:31 45.56821 134.59781 35907 ft 412 kts 217°
2026-04-12 16:31 45.36985 134.43951 35908 ft 410 kts 217°
2026-04-12 16:32 45.17003 134.28132 35915 ft 409 kts 218°
2026-04-12 16:32 44.97109 134.12510 35920 ft 408 kts 218°
2026-04-12 16:33 44.77478 133.97011 35919 ft 403 kts 219°
2026-04-12 16:33 44.58065 133.81129 35919 ft 402 kts 219°
2026-04-12 16:34 44.38712 133.65465 35921 ft 399 kts 219°
2026-04-12 16:34 44.19472 133.50008 35916 ft 398 kts 219°
2026-04-12 16:35 44.00354 133.34768 35923 ft 399 kts 219°
2026-04-12 16:35 43.81948 133.18160 35941 ft 388 kts 227°
2026-04-12 16:36 43.65017 132.99550 35958 ft 388 kts 227°
2026-04-12 16:36 43.48203 132.81202 35963 ft 386 kts 227°
2026-04-12 16:37 43.31610 132.63224 35963 ft 383 kts 228°
2026-04-12 16:37 43.14876 132.45229 35956 ft 381 kts 228°
2026-04-12 16:38 42.98109 132.27373 35954 ft 382 kts 228°
2026-04-12 16:38 42.81166 132.09738 35948 ft 385 kts 226°
2026-04-12 16:39 42.63838 131.92813 35968 ft 385 kts 226°
2026-04-12 16:39 42.46417 131.75846 35968 ft 385 kts 226°
2026-04-12 16:40 42.28951 131.58957 35970 ft 385 kts 226°
2026-04-12 16:40 42.11539 131.42266 35974 ft 387 kts 226°
2026-04-12 16:41 41.93874 131.25465 35983 ft 390 kts 226°
2026-04-12 16:41 41.86272 131.15655 35995 ft 372 kts 240°
2026-04-12 16:41 41.79911 131.04657 36004 ft 373 kts 240°
2026-04-12 16:42 41.67086 130.82744 36000 ft 373 kts 240°
2026-04-12 16:42 41.54309 130.61064 35988 ft 373 kts 240°
2026-04-12 16:43 41.28544 130.17817 35989 ft 373 kts 239°
2026-04-12 16:44 41.15547 129.96234 35989 ft 374 kts 239°
2026-04-12 16:44 41.02472 129.74675 35994 ft 376 kts 239°
2026-04-12 16:45 40.89274 129.53070 36013 ft 376 kts 238°
2026-04-12 16:45 40.76069 129.31594 35998 ft 379 kts 238°
2026-04-12 16:46 40.63905 129.09060 36003 ft 374 kts 245°
2026-04-12 16:46 40.51168 128.80544 36031 ft 379 kts 245°
2026-04-12 16:47 40.39029 128.53626 36026 ft 379 kts 244°
2026-04-12 16:47 40.26049 128.27904 40765 ft 161 kts 244°